TimeMST,TemperatureF,Dew PointF,Humidity,Sea Level PressureIn,VisibilityMPH,Wind Direction,Wind SpeedMPH,Gust SpeedMPH,PrecipitationIn,Events,Conditions,WindDirDegrees,DateUTC
12:53 AM,16.0,-0.0,49,30.11,10.0,South,3.5,-,N/A,,Overcast,170,2013-01-15 07:53:00
1:53 AM,17.1,3.0,54,30.11,10.0,Calm,Calm,-,N/A,,Overcast,0,2013-01-15 08:53:00
2:53 AM,18.0,3.0,52,30.11,10.0,SSE,3.5,-,N/A,,Overcast,160,2013-01-15 09:53:00
3:53 AM,17.1,6.1,62,30.11,10.0,Calm,Calm,-,N/A,,Overcast,0,2013-01-15 10:53:00
4:53 AM,18.0,10.0,71,30.10,4.0,South,6.9,-,0.00,Snow,Light Snow,180,2013-01-15 11:53:00
5:01 AM,19.4,12.2,74,29.92,2.0,South,6.9,-,0.00,Snow,Light Snow,180,2013-01-15 12:01:00
5:10 AM,19.4,12.2,74,29.92,1.5,South,6.9,-,0.00,Snow,Light Snow,170,2013-01-15 12:10:00
5:21 AM,19.4,14.0,80,29.91,3.0,SSE,8.1,-,0.00,Snow,Light Snow,160,2013-01-15 12:21:00
5:32 AM,19.4,15.8,86,29.92,1.8,SSE,6.9,-,0.00,Snow,Light Snow,160,2013-01-15 12:32:00
5:53 AM,19.0,16.0,88,30.13,1.5,South,3.5,-,0.01,Snow,Light Snow,180,2013-01-15 12:53:00
6:11 AM,19.4,15.8,86,29.94,2.0,SSW,3.5,-,0.00,Snow,Light Snow,210,2013-01-15 13:11:00
6:19 AM,19.4,15.8,86,29.94,1.8,WSW,3.5,-,0.00,Snow,Light Snow,240,2013-01-15 13:19:00
6:53 AM,21.9,18.0,85,30.12,2.0,South,4.6,-,0.01,Snow,Light Snow,190,2013-01-15 13:53:00
7:02 AM,21.2,17.6,86,29.95,1.8,SSW,4.6,-,0.00,Snow,Light Snow,200,2013-01-15 14:02:00
7:34 AM,21.2,17.6,86,29.95,2.0,South,5.8,-,0.01,Snow,Light Snow,190,2013-01-15 14:34:00
7:53 AM,23.0,19.0,85,30.12,1.5,South,4.6,-,0.02,Snow,Light Snow,190,2013-01-15 14:53:00
8:20 AM,24.8,19.4,80,29.96,2.5,South,3.5,-,0.00,Snow,Light Snow,170,2013-01-15 15:20:00
8:32 AM,24.8,21.2,86,29.96,1.8,South,4.6,-,0.00,Snow,Light Snow,170,2013-01-15 15:32:00
8:53 AM,25.0,19.9,81,30.12,1.2,South,3.5,-,0.00,Snow,Light Snow,180,2013-01-15 15:53:00
9:00 AM,24.8,21.2,86,29.97,0.8,South,4.6,-,0.01,Snow,Light Snow,170,2013-01-15 16:00:00
9:12 AM,24.8,21.2,86,29.97,1.0,South,4.6,-,0.01,Snow,Light Snow,180,2013-01-15 16:12:00
9:40 AM,26.6,21.2,80,29.97,1.5,Calm,Calm,-,0.01,Snow,Light Snow,0,2013-01-15 16:40:00
9:53 AM,26.1,23.0,88,30.12,1.2,Calm,Calm,-,0.01,Snow,Light Snow,0,2013-01-15 16:53:00
10:09 AM,26.6,24.8,93,29.97,1.2,SW,3.5,-,0.01,Snow,Light Snow,230,2013-01-15 17:09:00
10:42 AM,28.4,24.8,86,29.97,2.0,South,6.9,-,0.01,Snow,Light Snow,180,2013-01-15 17:42:00
10:53 AM,28.0,25.0,88,30.10,6.0,South,9.2,-,0.01,Snow,Light Snow,170,2013-01-15 17:53:00
11:53 AM,32.0,23.0,69,30.07,10.0,Calm,Calm,-,0.00,,Overcast,0,2013-01-15 18:53:00
12:53 PM,34.0,26.1,73,30.05,10.0,Calm,Calm,-,N/A,,Overcast,0,2013-01-15 19:53:00
1:53 PM,34.0,27.0,75,30.06,10.0,NE,4.6,-,0.00,Snow,Light Snow,40,2013-01-15 20:53:00
2:32 PM,33.8,26.6,75,29.98,5.0,NNW,3.5,-,0.00,Snow,Light Snow,340,2013-01-15 21:32:00
2:53 PM,34.0,27.0,75,30.09,10.0,North,5.8,-,0.00,,Overcast,10,2013-01-15 21:53:00
3:44 PM,32.0,26.6,80,30.00,1.8,SW,4.6,-,0.01,Snow,Light Snow,230,2013-01-15 22:44:00
3:53 PM,32.0,27.0,82,30.11,1.5,Calm,Calm,-,0.01,Snow,Light Snow,0,2013-01-15 22:53:00
4:16 PM,32.0,26.6,80,30.00,1.2,ENE,3.5,-,0.01,Snow,Light Snow,70,2013-01-15 23:16:00
4:33 PM,30.2,28.4,93,30.00,3.0,Calm,Calm,-,0.01,Snow,Light Snow,0,2013-01-15 23:33:00
4:53 PM,30.0,28.0,92,30.12,5.0,SSE,4.6,-,0.01,Snow,Light Snow,150,2013-01-15 23:53:00
5:53 PM,32.0,27.0,82,30.12,10.0,NW,9.2,-,0.00,,Overcast,320,2013-01-16 00:53:00
6:53 PM,37.0,28.0,70,30.10,10.0,NNW,13.8,19.6,N/A,,Overcast,330,2013-01-16 01:53:00
7:53 PM,37.9,28.0,68,30.08,10.0,NNW,21.9,31.1,0.01,,Mostly Cloudy,330,2013-01-16 02:53:00
8:53 PM,35.1,26.1,70,30.09,10.0,NNW,9.2,19.6,N/A,,Clear,340,2013-01-16 03:53:00
9:53 PM,37.0,24.1,59,30.09,10.0,NW,12.7,-,N/A,,Partly Cloudy,320,2013-01-16 04:53:00
10:53 PM,32.0,24.1,73,30.12,10.0,Calm,Calm,-,N/A,,Overcast,0,2013-01-16 05:53:00
11:53 PM,33.1,23.0,66,30.09,10.0,Calm,Calm,-,N/A,,Overcast,0,2013-01-16 06:53:00